Regional Weather Roundup
Issued by NWS Pendleton, OR

Home | Current Version | Previous Version | Text Only | Print | Product List | Glossary On
Versions: 1 2 3 4 5 6 7 8 9 10 11 12 13 14 15 16 17 18 19 20 21 22 23 24 25 26 27 28 29 30 31 32 33 34 35 36 37 38 39 40 41 42 43 44 45 46 47 48 49 50
000
ASUS46 KPDT 241810
RWRPDT
PENDLETON REGIONAL WEATHER ROUNDUP
NATIONAL WEATHER SERVICE PENDLETON OREGON
1100 AM PDT SUN MAY 24 2015

NOTE: FAIR INDICATES FEW OR NO CLOUDS BELOW 12,000 FEET WITH NO
SIGNIFICANT WEATHER AND/OR OBSTRUCTIONS TO VISIBILITY.

# INDICATES UNOFFICIAL STATION AND DATA

WAZ520-241910-
EAST SLOPES OF WASHINGTON CASCADES

CITY            SKY/WX      TMP DP  RH  WIND    PRES   REMARKS
#BUMPING DAM    N/A         56  N/A N/A S2      N/A
#CLE ELUM HS    N/A         58  46  64  N10     29.98S
#CLE ELUM LAKE  N/A         59  50  72  SW1     29.93F
#CLIFFDEL 2NW   N/A         59  46  62  NW5     N/A
#EASTON DOT     N/A         53  38  57  N5      N/A
#GLENWOOD       N/A         65  54  68  S5      29.95F
#MANASTASH CYN  N/A         66  51  58  N2      29.96F
#NELSON         N/A         60  49  67  CALM    29.98F
#NELSON 3SW     N/A         58  48  69  SW1     30.17S
#NILE           N/A         66  49  54  SW3     29.21F
#PEOH POINT     N/A         51  44  77  W8G25   N/A
#RONALD 2NW     N/A         60  38  44  SW2     29.90S
#SNOWDEN        N/A         57  38  49  CALM    N/A
#TEANAWAY 4NE   N/A         63  53  70  SW6     N/A
#TROUT LAKE 1NE N/A         64  51  63  NW6     29.96F
$$

WAZ521-241910-
SIMCOE HIGHLANDS

CITY            SKY/WX      TMP DP  RH  WIND    PRES   REMARKS
#SATUS PASS DOT N/A         60  44  55  SW13G31 N/A
#CENTERVILLE 4W N/A         64  51  63  NW13    29.75F
#CENTERVILLE 1SWN/A         63  50  62  W13     29.93F
#GOLDENDALE     N/A         64  50  60  NW9     N/A
#GOLDENDALE 1NE N/A         64  39  40  SW8     N/A
#GOLDENDALE 5WNWN/A         64  52  65  SW9     29.94F
#GOODNOE HILLS  N/A         69  51  53  SW15    N/A
#LYLE 6NE       N/A         59  51  75  SW8     29.97S
$$

WAZ026-241910-
KITTITAS VALLEY

CITY            SKY/WX      TMP DP  RH  WIND    PRES   REMARKS
ELLENSBURG AP   PTCLDY      69  49  49  NW21    29.97F
6HR MIN TEMP:   55; 6HR MAX TEMP:   70;

YTC-OPS AREA    N/A         65  47  52  NW5     29.98S
6HR MIN TEMP:   49; 6HR MAX TEMP:   65;

#ELLENSBURG CWU N/A         65  49  56  NW13    29.87F
#ELLENSBURG 3NE N/A         64  51  63  N9      29.97F
#KITTITAS 3S    N/A         65  54  68  NW6     29.91S
#THORP 6N       N/A         61  50  67  N12     29.95F
$$

WAZ027-241910-
YAKIMA VALLEY

CITY            SKY/WX      TMP DP  RH  WIND    PRES   REMARKS
SUNNYSIDE AP    SUNNY       68  52  57  SE7     29.96F
YAKIMA AIRPORT  PTCLDY      75  48  38  NW5     29.95F
6HR MIN TEMP:   56; 6HR MAX TEMP:   75;

#DONALD 2NE     N/A         78  39  25  E1      28.80F
#GRANDVIEW      N/A         72  50  46  CALM    29.93F
#MABTON         N/A         70  53  55  S1      29.95F
#NACHES 2SW     N/A         71  53  53  CALM    29.99S
#TERRACE HTS    N/A         73  52  48  CALM    29.86F
#TOPPENISH      N/A         70  52  53  E2      29.84S
#WAPATO 4NE     N/A         78  39  25  E1      28.80F
#WEST VALLEY    N/A         70  49  47  N1      29.89F
#WHITE SWAN 5E  N/A         71  55  57  CALM    29.92F
#WILEY CITY 3W  N/A         74  48  40  CALM    29.93S
$$

WAZ028-241910-
LOWER COLUMBIA BASIN...WASHINGTON

CITY            SKY/WX      TMP DP  RH  WIND    PRES   REMARKS
PASCO           SUNNY       72  51  48  VRB5    29.96F
6HR MIN TEMP:   59; 6HR MAX TEMP:   72;

RICHLAND AWOS   SUNNY       73  54  51  SW3     29.95F
#BASIN CITY 5SW N/A         71  58  64  SE3     29.95F
#BENTON CITY    N/A         71  53  53  CALM    29.84F
#CONNELL 5N     N/A         72  53  51  SW1     29.92F
#CONNELL 5NW    N/A         69  55  61  SW6     29.88F
#ELTOPIA        N/A         74  56  53  SE8     29.90F
#ELTOPIA 6NW    N/A         67  55  65  S1      28.93F
#KAHLOTUS       N/A         67  51  56  SW6     29.93F
#KENNEWICK 3S   N/A         70  54  57  S2      29.94F
#PASCO-BROADMOORN/A         78  54  43  SW2     29.83F
#PATERSON       N/A         67  51  56  SW7     29.94F
#PROSSER DOT    N/A         70  51  51  S7      N/A
#PROSSER        N/A         70  50  49  SE6     29.92F
#SAGEMOOR 2W    N/A         72  56  57  S2      29.78F
#TOUCHET 2S     N/A         71  57  61  SW3     29.92F
#WEST PASCO     N/A         75  57  54  SW2     29.95F
$$

WAZ029-241910-
FOOTHILLS OF THE BLUES...WASHINGTON

CITY            SKY/WX      TMP DP  RH  WIND    PRES   REMARKS
WALLA WALLA AP  SUNNY       70  50  49  SW12    29.98F
6HR MIN TEMP:   56; 6HR MAX TEMP:   70;

#DAYTON SCHOOL  N/A         65  48  54  S5      29.99F
#LOWDEN 2SE     N/A         70  54  57  W5      29.93F
#PLEASANT VIEW 1N/A         66  53  63  S8      29.96F
#PRESCOTT       N/A         69  55  61  CALM    29.93F
#SUDBURY        N/A         71  N/A N/A CALM    N/A
#WHITMAN COLLEGEN/A         67  52  59  SE3     29.99F
#WAITSBURG 8N   N/A         67  29  24  S7      29.82S
#WALLA WALLA U  N/A         70  53  55  SW2     29.94F
#WHITMAN MISSIONN/A         69  54  59  S1      29.96S
$$

WAZ030-241910-
BLUE MOUNTAINS...WASHINGTON

CITY            SKY/WX      TMP DP  RH  WIND    PRES   REMARKS
#DIXIE 5SE      N/A         58  48  69  SW5     29.96S
$$

ORZ009-041-WAZ024-241910-
COLUMBIA RIVER GORGE

CITY            SKY/WX      TMP DP  RH  WIND    PRES   REMARKS
HOOD RIVER AP   PTCLDY      63  50  62  W8      30.04S
THE DALLES AP   SUNNY       67  49  52  N24G32  29.99F
6HR MIN TEMP:   58; 6HR MAX TEMP:   67;

#ARLINGTON AIRPON/A         69  50  51  W14     N/A
#CELILO DOT     N/A         71  51  49  SW6     N/A
#LYLE           N/A         62  51  67  SW13G31 30.02F
#MARYHILL       N/A         67  49  52  E2      N/A
#MOSIER 1S      N/A         62  40  44  NW12    30.00S
#MURDOCK        N/A         65  52  63  NW16G33 30.00F

$$

ORZ510-241910-
NORTH CENTRAL OREGON

CITY            SKY/WX      TMP DP  RH  WIND    PRES   REMARKS
#CHENOWITH 1W   N/A         58  47  67  NW22    N/A
#COW CYN RST AREN/A         59  46  62  SW6     N/A
#DUFUR 9E       N/A         57  49  75  N7      30.03F
#GRASS VALLEY 1SN/A         65  49  56  W6      29.99F
#KENT DOT       N/A         64  40  41  SW6     N/A
#MAUPIN SCHOOL  N/A         70  50  49  S3      30.00F
#MORO SCHOOL    N/A         62  54  75  NW6     30.02F
#SHANIKO 5WSW   N/A         58  38  47  SW8     N/A
#SHANIKO 4NW    N/A         58  45  62  SW5     30.05S
#TYGH VALLEY 2NEN/A         67  52  59  SW1     29.97F
#WAPANITIA AIRPON/A         66  49  54  W3      29.98F
#WASCO DOT      N/A         66  47  50  W13     N/A
#WASCO 5NE      N/A         65  48  54  N10     29.97F
$$

ORZ511-241910-
CENTRAL OREGON

CITY            SKY/WX      TMP DP  RH  WIND    PRES   REMARKS
BEND AIRPORT    SUNNY       63  45  52  CALM    30.05F
MADRAS AIRPORT  SUNNY       63  46  54  CALM    30.06F
PRINEVILLE AP   SUNNY       63  48  58  CALM    30.04F
REDMOND AIRPORT SUNNY       62  46  56  CALM    30.04
6HR MIN TEMP:   39; 6HR MAX TEMP:   63;

#BEND 1SW       N/A         63  47  56  E1      N/A
#BEND-AWBREY    N/A         62  49  62  E2      29.97F
#BEND-KIM LN    N/A         64  50  60  CALM    30.03F
#CROOKED RVR RANN/A         64  48  56  W2      29.97F
#CULVER         N/A         64  49  58  CALM    29.99F
#LAKE BILLY CHINN/A         63  17  17  N5      30.09F
#POWELL BUTTE 3EN/A         57  48  72  NW3     N/A
#POWELL BUTTE   N/A         66  52  61  NW5     29.67F
#WARM SPRINGS   N/A         69  51  53  CALM    29.99F

$$


ORZ509-241910-
EAST SLOPES OF OREGON CASCADES

CITY            SKY/WX      TMP DP  RH  WIND    PRES   REMARKS
#BLUE BOX PASS  N/A         48  -4  11  CALM    N/A
#CAMP SHERMAN   N/A         67  49  52  SW1     29.95F
#LA PINE 4NW    N/A         56  46  69  CALM    30.05F
#SISTERS AIRPOR N/A         65  54  68  N5      30.17S
#SISTERS ODOT   N/A         64  N/A N/A CALM    N/A
#SISTERS 3N     N/A         66  50  56  NE6     30.04S
#SUNRIVER       N/A         58  48  69  S3      29.88F
#TUMALO 3W      N/A         63  46  54  NE1     29.87F
#WANOGA BUTTE D N/A         59  43  55  W3      N/A

$$

ORZ044-241910-
LOWER COLUMBIA BASIN...OREGON

CITY            SKY/WX      TMP DP  RH  WIND    PRES   REMARKS
HERMISTON       SUNNY       70  49  47  SW9     29.96F
6HR MIN TEMP:   56; 6HR MAX TEMP:   71;

#BOARDMAN SCHOOLN/A         70  50  49  SW7     29.97F
#ECHO 8SW       N/A         69  50  51  W10     29.98F
#IONE SCHOOL    N/A         68  49  51  W8      29.95F
#IRRIGON 4NW    N/A         72  51  48  SW7     N/A
#UMATILLA SCHOOLN/A         71  58  64  W6      30.00F
#UMATILLA       N/A         71  51  49  CALM    29.88F
$$

ORZ507-241910-
NORTHERN FOOTHILLS OF THE BLUES

CITY            SKY/WX      TMP DP  RH  WIND    PRES   REMARKS
PENDLETON AIRPT SUNNY       69  49  49  VRB6    29.98F
6HR MIN TEMP:   49; 6HR MAX TEMP:   69;

#ADAMS 3WNW     N/A         66  54  65  S5      29.95F
#ATHENA         N/A         66  53  63  SW1     29.97F
#CAYUSE         N/A         65  52  63  SW3     29.94F
#HELIX SCHOOL   N/A         64  50  60  S5      29.94F
#HELIX 3N       N/A         64  50  60  SW15    29.96F
#HOLDMAN 6E     N/A         66  49  54  N12     29.76F
#M-F FERNDALE   N/A         75  55  50  CALM    29.96F
#M-F GROVE ELEM N/A         68  49  51  SW6     29.96F
#M-FREEWATER 5SEN/A         67  53  61  W7      29.98S
#PENDLETON DNTN N/A         72  49  44  NW2     29.99S
#PDT AQUATIC CTRN/A         68  54  61  SW3     29.98F
#PENDLETON 5NE  N/A         68  53  59  CALM    29.95F
#PDT SUNRIDGE   N/A         67  50  54  CALM    29.99F
#PENDLETON 7NW  N/A         70  55  59  W9      29.92F
#PILOT ROCK     N/A         66  50  56  CALM    30.01S
#TUTUILLA       N/A         68  55  63  N2      29.97F
#UMAPINE 2E     N/A         70  54  57  SW1     29.94F
#WESTON SCHOOL  N/A         63  48  58  NW5     29.96F

$$

ORZ508-241910-
SOUTHERN FOOTHILLS OF THE BLUES

CITY            SKY/WX      TMP DP  RH  WIND    PRES   REMARKS
#AJAX           N/A         66  45  47  S7      29.94F
#CONDON 5W      N/A         59  46  62  W8      30.01F
#FOSSIL SCHOOL  N/A         64  51  63  NW1     29.99F
#HEPPNER EOC    N/A         66  49  54  NW1     29.88F
#HEPPNER 4NE    N/A         63  48  58  NW6     29.95F
#LEXINGTON 2SE  N/A         69  52  55  W6      29.94F
#RUGGS 5NE      N/A         66  47  50  W3      30.17F
#RUGGS 2SW      N/A         65  49  56  N6      29.97F

$$

ORZ502-503-241910-
BLUE MOUNTAINS

CITY            SKY/WX      TMP DP  RH  WIND    PRES   REMARKS
MEACHAM         MOSUNNY     64  49  58  VRB5    30.02
6HR MIN TEMP:   39; 6HR MAX TEMP:   64;

#BATTLE MTN DOT N/A         60  52  75  N3      N/A
#HEPPNER 15SE   N/A         60  52  75  N2      29.94F
#LADD CYN SMT   N/A         64  37  37  N15     N/A
#LONG CREEK HS  N/A         60  52  75  CALM    29.99F
#N POWDER DOT   N/A         66  45  47  N15     N/A
#PIKES PEAK     N/A         55  49  80  SW13    27.99S
#TOLLGATE       N/A         56  50  80  W1      29.98S
#TROY SCHOOL    N/A         73  53  49  CALM    29.73F
#UKIAH          N/A         64  52  65  NE1     29.97F
#WESTON 4E      N/A         62  51  67  S2      29.90F
$$

ORZ505-241910-
JOHN DAY BASIN

CITY            SKY/WX      TMP DP  RH  WIND    PRES   REMARKS
JOHN DAY        SUNNY       63  50  62  W3      30.02F
#JOHN DAY KJDY  N/A         68  52  57  SW2     30.05R
#DAYVILLE SCHOOLN/A         68  49  51  N2      29.96F
#MITCHELL       N/A         65  54  68  CALM    30.15F
#MONUMENT HS    N/A         67  49  52  SE1     30.00F
#MT. VERNON 5SE N/A         61  51  70  NW3     29.98F
$$

ORZ506-241910-
OCHOCO AND JOHN DAY HIGHLANDS

CITY            SKY/WX      TMP DP  RH  WIND    PRES   REMARKS
#PAULINA SCHOOL N/A         66  50  56  S5      30.01F
#PINE MTN OBS   N/A         52  45  77  N1      N/A
#PRAIRIE CITY   N/A         64  53  67  N1      29.93F
#SENECA         N/A         63  N/A N/A NW5     N/A
#SENECA 9NW     N/A         60  48  64  E1      29.91F
$$

ORZ049-241910-
GRANDE RONDE VALLEY

CITY            SKY/WX      TMP DP  RH  WIND    PRES   REMARKS
LA GRANDE       SUNNY       70  46  42  N9      29.96F
#COVE           N/A         64  57  78  S2      29.98F
#COVE SCHOOL    N/A         66  53  63  CALM    29.96F
#ELGIN 3N       N/A         72  46  39  NE3     29.95F
#ELGIN 1E       N/A         68  49  51  CALM    N/A
#ISLAND CITY 4N N/A         58  51  77  CALM    30.12F
#LADD CYN DOT   N/A         68  42  39  NW8     N/A
#LA GRANDE ELEM N/A         69  49  49  N2      30.00F
#UNION 1S       N/A         68  55  63  N1      29.80F
$$

ORZ050-241910-
WALLOWA COUNTY

CITY            SKY/WX      TMP DP  RH  WIND    PRES   REMARKS
#ENTERPRISE HS  N/A         64  45  50  E2      30.02F
#IMNAHA SCHOOL  N/A         70  52  53  N5      29.96F
#IMNAHA 10S     N/A         67  49  52  E7      29.97F
#JOSEPH 3N      N/A         62  44  52  N2      30.04F
#JOSEPH 3W      N/A         60  41  49  E5      29.89R
#LOSTINE        N/A         66  45  47  CALM    29.71F
#MT HOWARD 8000 N/A         43  37  79  NW2     30.14S
#PROMISE 1S     N/A         63  47  56  W5      30.01F
#SHEEP RDG 7000 N/A         46  39  76  CALM    29.97S
#WALLOWA SCHOOL N/A         70  47  44  CALM    30.80F



$$



USA.gov is the U.S. government's official web portal to all federal, state and local government web resources and services.